Tracking 19846 objects as of 18-Sep-2019
HD Live streaming from Space Station
objects crossing your sky now

COSMOS 2176


COSMOS 2176 is no longer on orbit


NORAD ID: 21847
Int'l Code: 1992-003A
Perigee: N/A
Apogee: N/A
Inclination: N/A
Period: N/A
Semi major axis: N/A
RCS: N/A
Launch date: January 24, 1992
Source: Commonwealth of Independent States (former USSR) (CIS)
Launch site: PLESETSK MISSILE AND SPACE COMPLEX (PKMTR)
Decay date: 2012-01-17
aabbcc
Your satellite tracking list
Your tracking list is empty




NASA's NSSDC Master Catalog

Two Line Element Set (TLE):
1 21847U 92003A   12017.32172832  .40679130  66468-5  10000-3 0  9994
2 21847 062.0296 030.4716 0405617 255.3093 197.4067 15.75943036147032
Source of the keplerian elements: AFSPC